TimePST,TemperatureF,Dew PointF,Humidity,Sea Level PressureIn,VisibilityMPH,Wind Direction,Wind SpeedMPH,Gust SpeedMPH,PrecipitationIn,Events,Conditions,WindDirDegrees,DateUTC
12:15 AM,44.6,37.4,76,30.20,10.0,SSE,12.7,-,0.00,,Overcast,160,2013-02-27 08:15:00
12:35 AM,42.8,37.4,81,30.20,10.0,South,8.1,-,0.00,,Overcast,170,2013-02-27 08:35:00
12:55 AM,42.8,41.0,93,30.21,4.0,South,8.1,-,0.00,,Overcast,190,2013-02-27 08:55:00
1:15 AM,41.0,41.0,100,30.23,5.0,SW,6.9,-,0.02,,Overcast,230,2013-02-27 09:15:00
1:35 AM,41.0,41.0,100,30.20,5.0,SE,17.3,23.0,0.05,,Overcast,130,2013-02-27 09:35:00
1:55 AM,41.0,41.0,100,30.23,10.0,SSE,5.8,-,0.05,,Overcast,150,2013-02-27 09:55:00
2:15 AM,39.2,39.2,100,30.23,9.0,SE,5.8,-,0.00,,Overcast,140,2013-02-27 10:15:00
2:35 AM,41.0,41.0,100,30.23,10.0,SE,8.1,-,0.00,,Mostly Cloudy,130,2013-02-27 10:35:00
2:55 AM,39.2,39.2,100,30.23,10.0,SE,6.9,-,0.01,,Mostly Cloudy,140,2013-02-27 10:55:00
3:15 AM,39.2,39.2,100,30.24,10.0,SSE,3.5,-,0.00,,Overcast,160,2013-02-27 11:15:00
3:35 AM,39.2,39.2,100,30.24,10.0,Calm,Calm,-,0.00,,Overcast,0,2013-02-27 11:35:00
3:55 AM,39.2,39.2,100,30.24,10.0,Calm,Calm,-,0.00,,Overcast,0,2013-02-27 11:55:00
4:15 AM,39.2,39.2,100,30.25,5.0,Calm,Calm,-,0.01,,Overcast,0,2013-02-27 12:15:00
4:35 AM,39.2,39.2,100,30.26,7.0,Calm,Calm,-,0.01,,Overcast,0,2013-02-27 12:35:00
4:55 AM,39.2,39.2,100,30.27,10.0,Calm,Calm,-,0.01,,Overcast,0,2013-02-27 12:55:00
5:15 AM,39.2,39.2,100,30.28,10.0,Calm,Calm,-,0.00,,Overcast,0,2013-02-27 13:15:00
5:35 AM,39.2,39.2,100,30.29,10.0,ESE,4.6,-,0.00,,Overcast,120,2013-02-27 13:35:00
5:55 AM,39.2,39.2,100,30.29,10.0,Calm,Calm,-,0.00,,Overcast,0,2013-02-27 13:55:00
6:15 AM,39.2,39.2,100,30.30,10.0,Calm,Calm,-,0.00,,Mostly Cloudy,0,2013-02-27 14:15:00
6:35 AM,39.2,39.2,100,30.30,10.0,Calm,Calm,-,0.00,,Overcast,0,2013-02-27 14:35:00
6:55 AM,39.2,39.2,100,30.30,10.0,SE,3.5,-,0.00,,Overcast,140,2013-02-27 14:55:00
7:15 AM,39.2,39.2,100,30.31,10.0,Calm,Calm,-,0.00,,Overcast,0,2013-02-27 15:15:00
7:35 AM,39.2,39.2,100,30.31,10.0,NE,4.6,-,0.00,,Overcast,40,2013-02-27 15:35:00
7:55 AM,39.2,39.2,100,30.31,10.0,ENE,5.8,-,0.00,,Overcast,60,2013-02-27 15:55:00
8:15 AM,39.2,39.2,100,30.31,10.0,East,3.5,-,0.00,,Overcast,80,2013-02-27 16:15:00
8:35 AM,41.0,41.0,100,30.31,10.0,East,4.6,-,0.00,,Mostly Cloudy,90,2013-02-27 16:35:00
8:55 AM,42.8,42.8,100,30.31,10.0,East,5.8,-,0.00,,Partly Cloudy,90,2013-02-27 16:55:00
9:15 AM,42.8,42.8,100,30.30,10.0,East,4.6,-,0.00,,Clear,100,2013-02-27 17:15:00
9:35 AM,44.6,44.6,100,30.30,10.0,ESE,5.8,-,0.00,,Clear,110,2013-02-27 17:35:00
9:55 AM,44.6,42.8,93,30.30,10.0,ESE,5.8,-,0.00,,Mostly Cloudy,120,2013-02-27 17:55:00
10:15 AM,44.6,42.8,93,30.29,10.0,SE,4.6,-,0.00,,Overcast,140,2013-02-27 18:15:00
10:35 AM,44.6,44.6,100,30.29,10.0,ENE,5.8,-,0.00,,Overcast,70,2013-02-27 18:35:00
10:55 AM,46.4,42.8,87,30.30,10.0,SE,5.8,-,0.00,,Mostly Cloudy,130,2013-02-27 18:55:00
11:15 AM,46.4,41.0,81,30.31,10.0,SE,3.5,-,0.00,,Mostly Cloudy,130,2013-02-27 19:15:00
11:35 AM,46.4,41.0,81,30.31,10.0,ESE,3.5,-,0.00,,Overcast,120,2013-02-27 19:35:00
11:55 AM,46.4,42.8,87,30.31,10.0,South,5.8,-,0.91,,Overcast,180,2013-02-27 19:55:00
12:15 PM,46.4,42.8,87,30.31,10.0,East,3.5,-,0.00,,Overcast,100,2013-02-27 20:15:00
12:35 PM,48.2,42.8,82,30.31,10.0,East,3.5,-,0.00,,Overcast,100,2013-02-27 20:35:00
12:55 PM,48.2,41.0,76,30.29,10.0,Calm,Calm,-,0.00,,Mostly Cloudy,0,2013-02-27 20:55:00
1:15 PM,48.2,42.8,82,30.29,10.0,East,5.8,-,0.00,,Mostly Cloudy,90,2013-02-27 21:15:00
1:35 PM,48.2,41.0,76,30.29,10.0,SSE,6.9,-,0.00,,Overcast,160,2013-02-27 21:35:00
1:55 PM,48.2,39.2,71,30.28,10.0,SSW,4.6,-,0.00,,Mostly Cloudy,200,2013-02-27 21:55:00
2:15 PM,48.2,39.2,71,30.29,10.0,SW,6.9,-,0.00,,Mostly Cloudy,220,2013-02-27 22:15:00
2:35 PM,48.2,39.2,71,30.28,10.0,South,3.5,-,0.00,,Overcast,190,2013-02-27 22:35:00
2:55 PM,48.2,39.2,71,30.28,10.0,SSW,6.9,-,0.00,,Mostly Cloudy,200,2013-02-27 22:55:00
3:15 PM,48.2,39.2,71,30.28,10.0,SSW,3.5,-,0.00,,Partly Cloudy,210,2013-02-27 23:15:00
3:35 PM,48.2,39.2,71,30.28,10.0,Calm,Calm,-,0.00,,Mostly Cloudy,0,2013-02-27 23:35:00
3:55 PM,48.2,39.2,71,30.28,10.0,Calm,Calm,-,0.00,,Scattered Clouds,0,2013-02-27 23:55:00
4:15 PM,48.2,39.2,71,30.27,9.0,Calm,Calm,-,0.00,,Scattered Clouds,0,2013-02-28 00:15:00
4:35 PM,48.2,41.0,76,30.27,10.0,Calm,Calm,-,0.00,,Mostly Cloudy,0,2013-02-28 00:35:00
4:55 PM,46.4,42.8,87,30.27,7.0,North,3.5,-,0.00,,Overcast,350,2013-02-28 00:55:00
5:15 PM,44.6,44.6,100,30.29,3.0,NW,5.8,-,0.00,,Overcast,320,2013-02-28 01:15:00
5:35 PM,44.6,44.6,100,30.29,5.0,NNE,3.5,-,0.01,,Overcast,20,2013-02-28 01:35:00
6:15 PM,42.8,42.8,100,30.29,8.0,North,5.8,-,0.01,,Overcast,10,2013-02-28 02:15:00
6:35 PM,42.8,42.8,100,30.28,10.0,North,4.6,-,0.01,,Overcast,10,2013-02-28 02:35:00
6:55 PM,42.8,42.8,100,30.30,5.0,North,3.5,-,0.02,,Overcast,10,2013-02-28 02:55:00
7:15 PM,42.8,42.8,100,30.29,10.0,NE,6.9,-,0.00,,Overcast,40,2013-02-28 03:15:00
7:35 PM,42.8,42.8,100,30.30,8.0,NNE,6.9,-,0.00,,Overcast,30,2013-02-28 03:35:00
7:55 PM,42.8,42.8,100,30.30,10.0,NE,5.8,-,0.00,,Overcast,40,2013-02-28 03:55:00
8:15 PM,42.8,42.8,100,30.30,10.0,ENE,6.9,-,0.00,,Overcast,60,2013-02-28 04:15:00
8:35 PM,42.8,42.8,100,30.29,10.0,ENE,6.9,-,0.00,,Overcast,70,2013-02-28 04:35:00
8:55 PM,42.8,42.8,100,30.29,10.0,ENE,5.8,-,0.00,,Overcast,60,2013-02-28 04:55:00
9:15 PM,42.8,42.8,100,30.28,10.0,NE,4.6,-,0.00,,Overcast,50,2013-02-28 05:15:00
9:35 PM,42.8,42.8,100,30.29,10.0,NE,4.6,-,0.00,,Overcast,50,2013-02-28 05:35:00
9:55 PM,42.8,42.8,100,30.30,10.0,ENE,6.9,-,0.00,,Overcast,60,2013-02-28 05:55:00
10:15 PM,42.8,42.8,100,30.30,10.0,ENE,6.9,-,0.00,,Overcast,60,2013-02-28 06:15:00
10:35 PM,42.8,42.8,100,30.30,10.0,East,5.8,-,0.00,,Overcast,80,2013-02-28 06:35:00
10:55 PM,42.8,42.8,100,30.29,10.0,ENE,6.9,-,0.00,,Overcast,60,2013-02-28 06:55:00
11:15 PM,42.8,42.8,100,30.28,10.0,ENE,8.1,-,0.00,,Overcast,70,2013-02-28 07:15:00
11:35 PM,41.0,41.0,100,30.29,10.0,NE,4.6,-,0.00,,Overcast,50,2013-02-28 07:35:00
11:55 PM,41.0,41.0,100,30.28,10.0,NE,6.9,-,0.00,,Overcast,50,2013-02-28 07:55:00